www.pogodaiklimat.ru

Погода и климат >> Архив погоды >> Аргентина >> Las Lomitas


ПОГОДА в Las Lomitas

  • Прогноз погоды в Las Lomitas
  • Монитор погоды в Las Lomitas
  • Климат города

АРХИВ ПОГОДЫ в Las Lomitas

Время (UTC), дата Ветер
(напр.,м/с)
 
Видим.   Явления Облачность Т
(С)
Тd
(С)
f
(%)
Тe
(С)
Тes
(С)
Комфортность P
(гПа)
Po
(гПа)
Тmin
(С)
Tmax
(С)
R
(мм)
R24
(мм)
S
(см)
00 5.12 ЮВ 3 20 км 9/0
[Ac trans]
+28.0 +17.3 52 +32 +32 душно 1011.2 996.4 +25.5 +32.0
09 5.12 СВ 1 20 км 8/0
[Ac As]
+22.4 +19.0 81 +28 +28 душно 1012.7 997.8
12 5.12 СВ 1 20 км 8/0
[Ac As]
+26.4 +19.7 67 +32 +36 очень
душно
1013.6 998.8 +22.4 +28.0
15 5.12 СВ 3 20 км 8/3 1500 м
[Cu hum Ac trans]
+32.2 +17.0 40 +36 +43 очень
душно
1012.7 998.0
18 5.12 ЮВ 2 20 км 6/4 1350 м
[Cu hum Ac trans]
+34.8 +16.5 34 +38 +46 очень
душно
1010.6 996.0
21 5.12 ЮВ 1 20 км 8/0
[Ac As]
+34.2 +16.5 35 +37 +39 очень
душно
1007.3 992.6
00 6.12 В 1 20 км 6/0
[Ac As]
+29.6 +18.2 50 +34 +34 очень
душно
1008.8 994.1 +26.4 +35.0
09 6.12 штиль 0 20 км 10/10 540 м
[Sc]
+24.4 +20.1 77 +30 +30 очень
душно
1010.0 995.3
12 6.12 СВ 1 20 км 9/0
[Ac As]
+27.8 +19.9 62 +34 +37 очень
душно
1010.5 995.7 +24.4 +29.6
15 6.12 ЮВ 1 20 км 9/0
[Ac As]
+29.0 +21.7 65 +37 +46 очень
душно
1010.1 995.4
18 6.12 ЮВ 2 20 км 5/0
[Ac trans Ci sp]
+34.0 +20.1 44 +40 +55 опасность
солнечного
удара
1007.1 992.5
21 6.12 ЮВ 1 20 км 8/0
[Ac trans]
+33.0 +19.5 45 +39 +41 очень
душно
1005.9 991.3
00 7.12 штиль 0 20 км 8/8 1200 м
[Sc]
+30.4 +21.6 59 +38 +38 очень
душно
1007.1 992.5 +27.8 +34.7
09 7.12 штиль 0 20 км 5/0
[Ac trans]
+25.8 +22.0 80 +33 +33 очень
душно
1010.4 995.7
12 7.12 В 1 20 км ясно +31.4 +22.4 59 +41 +49 опасность
перегрева
1011.9 997.3 +25.8 +31.4
15 7.12 СЗ 1 20 км 5/5 1500 м
[Cu hum]
+35.3 +20.3 42 +42 +54 опасность
перегрева
1010.2 995.7
18 7.12 СЗ 1 20 км 5/5 1500 м
[Cu hum]
+36.6 +19.8 38 +42 +53 опасность
перегрева
1008.1 993.6
21 7.12 ЮВ 2 20 км 3/3 1350 м
[Cu hum]
+36.6 +20.1 38 +42 +45 опасность
перегрева
1003.3 988.8
00 8.12 В 1 20 км 3/0
[Ac trans]
+31.8 +19.5 48 +38 +38 очень
душно
1004.4 990.0 +31.4 +38.0
09 8.12 штиль 0 20 км 3/0
[Ac trans]
+24.7 +21.1 80 +31 +31 очень
душно
1006.3 991.7
12 8.12 В 2 20 км ясно +31.7 +20.9 53 +39 +47 очень
душно
1007.8 993.3 +24.7 +31.8
15 8.12 В 2 20 км 3/3 1200 м
[Cu hum]
+36.8 +20.8 40 +44 +59 опасность
перегрева
1006.5 992.0
18 8.12 СВ 2 20 км 9/9 1500 м
[Cu hum]
+39.0 +20.0 33 +44 +46 опасность
перегрева
1002.8 988.4
21 8.12 СВ 2 20 км 6/6 1500 м
[Cu hum]
+38.4 +19.1 33 +43 +45 опасность
перегрева
1001.1 986.8
00 9.12 СВ 1 20 км ясно +32.6 +19.0 45 +38 +38 очень
душно
1002.9 988.5 +31.7 +40.0
09 9.12 штиль 0 20 км ясно +26.0 +20.4 71 +32 +32 очень
душно
1005.7 991.2
12 9.12 штиль 0 20 км 3/0
[Ci fib]
+32.2 +22.7 57 +42 +51 опасность
перегрева
1007.5 993.0 +26.0 +32.6
15 9.12 Ю 3 20 км гроза, ливневой дождь 10/3 900 м
[Cb cap As op]
+21.4 +20.8 96 +27 +29 душно 1013.0 998.1
18 9.12 В 2 20 км в посл. час гроза {дождь} 9/0
[Ac As]
+24.4 +21.4 83 +31 +38 очень
душно
1008.5 993.8 40
21 9.12 СВ 2 20 км 9/0
[Ac As]
+25.4 +22.5 84 +33 +35 очень
душно
1005.2 990.5
00 10.12 ЮВ 1 20 км 3/0
[Ac trans]
+23.2 +22.0 93 +32 +32 очень
душно
1006.7 992.0 +21.4 +36.0
09 10.12 ЮЗ 1 20 км 1/0
[Ci fib]
+20.4 +20.1 98 +26 +26 душно 1009.0 994.1
12 10.12 ЮЗ 2 20 км ясно +25.6 +21.7 79 +33 +41 очень
душно
1010.5 995.6 +20.4 +25.6 40
15 10.12 ЮЗ 3 20 км ясно +32.2 +22.1 55 +41 +60 опасность
перегрева
1008.7 994.0
18 10.12 ЮВ 1 20 км 3/3 1500 м
[Cu hum]
+35.3 +22.4 47 +44 +59 опасность
перегрева
1007.1 992.4
21 10.12 Ю 1 20 км ясно +35.8 +20.0 40 +42 +46 опасность
перегрева
1005.8 991.2
00 11.12 штиль 0 20 км ясно +28.5 +23.6 75 +39 +39 очень
душно
1007.4 992.6 +25.6 +36.0
09 11.12 штиль 0 20 км 3/0
[Ac trans]
+22.8 +18.7 78 +29 +29 очень
душно
1009.0 994.4
12 11.12 ЮВ 1 20 км 5/0
[Ac trans]
+29.2 +20.4 59 +36 +42 очень
душно
1011.2 996.5 +22.5 +29.2
15 11.12 ЮВ 1 20 км 3/3 1500 м
[Cu hum]
+33.0 +16.9 38 +36 +53 опасность
солнечного
удара
1010.9 996.4
18 11.12 ЮЗ 3 20 км 1/1 1500 м
[Cu hum]
+35.5 +17.3 34 +39 +53 опасность
солнечного
удара
1011.9 997.3

 

Местоположение метеостанции Las Lomitas (Аргентина): широта -24.70 долгота -60.58 высота над уровнем моря 130 м.

В архиве по умолчанию представлена погода в Las Lomitas за последнюю неделю. Архивные данные за месяц целиком и за предыдущие месяцы, начиная с января 2011 года, Вы можете получить, выбрав интересующий диапазон дат из раскрывающегося списка и нажав кнопку "Ввод!".

Внимание! Время в таблицах - всемирное. Для получения местного времени необходимо прибавить поправку, которая в Las Lomitas равна -3 ч.

Смотрите также архив погоды в соседних городах и на ближайших метеорологических станциях:

Погода в Gral. Bruguez (Парагвай) (177 км)
Погода в Pozo Colorado (Парагвай) (225 км)
Погода в Presidencia Roque Saenz Pena (Аргентина) (226 км)
Погода в Prats-Gil (Парагвай) (241 км)
Погода в Formosa (Аргентина) (289 км)
Погода в Mariscal Estigar (Парагвай) (299 км)
Погода в Asuncion (Парагвай) (316 км)
Погода в Pilar (Парагвай) (330 км)
Погода в Resistencia (Аргентина) (342 км)
Погода в Corrientes (Аргентина) (356 км)

Пояснения к столбцам:

Ветер - указаны скорость ветра в м/с - средняя за 10 мин, порывы в срок и между сроками (в фигурных скобках) и направление, откуда дует ветер: С - северный, СВ - северо-восточный, В - восточный, ЮВ - юго-восточный, Ю - южный, ЮЗ - юго-западный, З - западный, СЗ - северо-западный.
Видимость - горизонтальная дальность видимости в метрах или километрах. При видимости от 1 до 10 км при отсутствии осадков обычно наблюдается дымка, при ухудшении видимости до 1 км и менее - туман. В сухую погоду видимость может ухудшаться дымом, пылью или мглою.
Явления - указаны атмосферные явления, наблюдавшиеся в срок или в последний час перед сроком; фигурными скобками обозначены явления, наблюдавшиеся между сроками (за 1-3 часа до срока); квадратными скобками обозначены град или гололедные отложения с указанием их диаметра в мм.
Облачность - указаны через наклонную черту общая и нижняя облачность в баллах и высота нижней границы облаков в метрах; квадратными скобками обозначены формы облаков: Ci - перистые, Cs - перисто-слоистые, Cc - перисто-кучевые, Ac - высококучевые, As - высокослоистые, Sc - слоисто-кучевые, Ns - слоисто-дождевые, Cu - кучевые, Cb - кучево-дождевые. Подробнее классификацию облаков см. в Атласе облаков (PDF).
T - Температура воздуха - температура, измеренная на высоте 2 м над землей.
Td - Температура точки росы - температура, при понижении до которой содержащийся в воздухе водяной пар достигнет насыщения.
f - Относительная влажность воздуха - влажноcть воздуха, измеренная на высоте 2 м над землей.
Te - Эффективная температура - температура, которую ощущает одетый по сезону человек в тени. Характеристика душности погоды. При расчете учитывается влияние влажности воздуха и скорости ветра на теплоощущения человека.
Tes - Эффективная температура на солнце - температура, которую ощущает человек, с поправкой на солнечный нагрев. Характеристика знойности погоды. Зависит от высоты солнца над горизонтом, облачности и скорости ветра. Ночью, в пасмурную погоду, а также при ветре 12 м/с и более поправка равна нулю.
P - Атмосферное давление - приведенное к уровню моря атмосферное давление.
Po - Атмосферное давление - измеренное на уровне метеостанции атмосферное давление.
Tmin - Минимальная температура - минимум температуры воздуха на высоте 2 м над землей.
Tmax - Максимальная температура - максимум температуры воздуха на высоте 2 м над землей.
R - Количество осадков - Количество выпавших осадков за период времени, мм. При наведении курсора мыши на число - период времени, за который выпало указанное количество осадков.
R24 - Количество осадков - Количество выпавших осадков за 24 часа, мм.
S - Снежный покров - Высота снежного покрова, см. При наведении курсора мыши на число - состояние снежного покрова и степень покрытия местности в баллах.